User: anonymous   Login
Location: Ab? ar R?sh Ba?r?
(24.1861°N, 32.8847°E)
Time: 12:14:35
(UTC+00:00)
Language:

Cosmos 1544 Rocket - Orbit

View from above orbital plane
View from above orbital plane
View from above satellite
View from above satellite

Ground track
Ground track

The orbit data is extracted from the following two-line orbital elements,

1 14820U 84027B   22020.05165599  .00000201  00000-0  21371-4 0  9993
2 14820  82.5411 217.8355 0017242 285.3261  74.6048 14.83745908 44749
Epoch (UTC): 20 January 2022 01:14:23
Eccentricity: 0.0017242
inclination: 82.5411°
perigee height: 605 km
apogee height: 629 km
right ascension of ascending node: 217.8355°
argument of perigee: 285.3261°
revolutions per day: 14.83745908
mean anomaly at epoch: 74.6048°
orbit number at epoch: 4474

The dashed part of the orbit path shows where the satellite is in the earth's shadow,  

DLR